Miscellaneous Local Product
Issued by NWS North Platte, NE

Home | Current Version | Previous Version | Text Only | Print | Product List | Glossary On
Versions: 1 2 3 4 5 6 7 8 9 10 11 12 13 14 15 16 17 18 19 20 21 22 23 24 25 26 27 28 29 30 31 32 33 34 35 36 37 38 39 40 41 42 43 44 45 46 47 48 49 50
000
AXUS43 KLBF 300710
MISLBF


WESTERN AND NORTH CENTRAL NEBRASKA HOURLY WEATHER ROUNDUP
NATIONAL WEATHER SERVICE NORTH PLATTE NE
200 AM CDT WED JUL 30 2014

***STATIONS NOT REPORTING VARIABLES SUCH AS SKY/WEATHER OR
PRESSURE ARE PROVIDED BY THE NEBRASKA DEPARTMENT OF
ROADS...RAWS...AND APRS NETWORKS...AND ARE NOT UNDER
NATIONAL WEATHER SERVICE QUALITY CONTROL***

...OBSERVATIONS IN AND NEAR THE EASTERN PANHANDLE OF NEBRASKA...

CITY           SKY/WX    TMP DP  RH WIND       PRES   REMARKS
PINE RIDGE     MOCLDY    51  50  96 CALM      30.24S
CHADRON        CLOUDY    56  53  90 CALM      30.23F
ALLIANCE       CLOUDY    63  54  72 NE5       30.25S
SIDNEY         CLOUDY    63  61  93 SW6       30.26F
WHITECLAY        N/A     51  48  90 CALM        N/A
RUSHVILLE        N/A     53  52  95 W9          N/A
GORDON           N/A     57  56  95 NW3         N/A
CRESCENT LAKE    N/A     63  56  77 NE5         N/A
LISCO            N/A     68  65  88 W3          N/A
BIG SPRINGS      N/A     65  63  92 CALM        N/A
$$

...OBSERVATIONS IN NORTH CENTRAL NEBRASKA...

CITY           SKY/WX    TMP DP  RH WIND       PRES   REMARKS
VALENTINE      MOCLDY    54  50  86 W3        30.20S
THEDFORD       CLOUDY    59  55  86 CALM      30.21S
AINSWORTH      MOCLDY    58  51  78 CALM      30.19S
O`NEILL        PTCLDY    59  55  84 S3        30.18S
ORD            CLOUDY    59  57  93 N3        30.16F
BROKEN BOW     CLOUDY    63  59  87 CALM      30.18S
BROWNLEE         N/A     64  51  62 CALM        N/A
SPRINGVIEW       N/A     53  50  89 CALM        N/A
DUNNING          N/A     64  61  88 CALM        N/A
ROSE             N/A     67  60  79 CALM        N/A
NEWPORT          N/A     57  56  99 CALM        N/A
SARGENT          N/A     62  59  89 CALM        N/A
COMSTOCK         N/A     69  62  80 E3          N/A
CHAMBERS         N/A     57  54  90 CALM        N/A
$$

...OBSERVATIONS IN SOUTHWEST NEBRASKA AND FAR NORTHEAST COLORADO...

CITY           SKY/WX    TMP DP  RH WIND       PRES   REMARKS
WRAY             N/A    N/A N/A N/A N10       30.21S
HOLYOKE        RAIN      63  61  94 E9        30.23F
IMPERIAL       HVY RAIN  63  60  90 E13       30.22S FOG
OGALLALA       CLOUDY    64  61  90 CALM      30.22S
NORTH PLATTE   CLOUDY    65  60  84 E5        30.20S
MCCOOK         HVY RAIN  64  61  90 NE14      30.18S FOG
LEXINGTON      CLOUDY    67  60  78 E5        30.19R
PAXTON           N/A     66  63  89 CALM        N/A
SUTHERLAND       N/A     65  62  90 CALM        N/A
BRADY            N/A     65  60  83 CALM        N/A
CALLAWAY         N/A     64  62  92 E3          N/A
$$

...SOME WEATHER OBSERVATIONS FROM AROUND THE REGION...

CITY           SKY/WX    TMP DP  RH WIND       PRES   REMARKS
DENVER         LGT RAIN  58  57  97 E7        30.25F
LARAMIE        LGT RAIN  53  51  93 NE6       30.36F
CHEYENNE       RAIN      56  55  97 E8        30.33S FOG
SCOTTSBLUFF    LGT RAIN  65  61  87 N3        30.26S
RAPID CITY     PTCLDY    56  50  80 CALM      30.21S
PIERRE         CLOUDY    62  56  80 CALM      30.14S
WINNER         FAIR      61  50  67 S6        30.17S
SIOUX FALLS    CLEAR     55  53  93 CALM      30.15R
OMAHA          PTCLDY    59  56  89 N3        30.13F
GRAND ISLAND   CLOUDY    64  60  87 E5        30.16F
KANSAS CITY    PTCLDY    67  59  75 CALM      30.11S
WICHITA        MOCLDY    71  61  70 SE7       30.07F
HAYS           CLOUDY    72  55  56 E12       30.11F
LIBERAL        CLOUDY    66  61  82 SE7       30.09F
GOODLAND       LGT RAIN  64  63  96 CALM      30.17F
$$



USA.gov is the U.S. government's official web portal to all federal, state and local government web resources and services.